{"data":{"norad_id":63853,"epoch":"2026-05-24T23:49:53.546304Z","epoch_age_seconds":72884,"freshness":"FRESH","line1":"1 63853U 25093T   26144.99298086  .00018343  00000+0  67401-3 0  9991","line2":"2 63853  43.0037   6.8003 0001467 274.6367  85.4317 15.27601071 59646","mean_motion":15.27601071,"eccentricity":0.0001467,"inclination_deg":43.0037,"raan_deg":6.8003,"arg_perigee_deg":274.6367,"mean_anomaly_deg":85.4317,"bstar":0.00067401,"rev_number":5964,"period_min":94.265448443116,"perigee_km":481.97947586616,"apogee_km":483.99252935513,"semimajor_km":6861.1230026106,"source":"CELESTRAK","updated_at":"2026-05-25T13:38:20.149636Z"}}